sat.trackr.live / text

‹ back to catalog

STARLINK-2542

NORAD 48292 · 2021-036S

PAYLOAD ACTIVE UNKNOWN

§ Identity

Operator
Country
US
Launch date
2021-04-29
Launch site
AFETR
Launch vehicle
Mass (kg)
RCS (m²)

Purposes: comms

External: N2YO · Heavens-Above · Gunter

§ Orbital elements

Epoch: 2026-05-25T02:06:22.133952Z

Period
94.01 min
Inclination
53.1610°
Eccentricity
0.0001112
Mean motion
15.31698562 rev/d
Perigee alt
470.0 km
Apogee alt
471.5 km
Semi-major
6,848.9 km
B*
2.4521e-5
RAAN
79.9212°
Arg perigee
88.2249°
Mean anomaly
271.8880°
Rev number
28,011

§ Raw data

STARLINK-25421 48292U 21036S   26145.08775618  .00000396  00000+0  24521-4 0  99922 48292  53.1610  79.9212 0001112  88.2249 271.8880 15.31698562280113

JSON: /api/v1/satellites/48292 · /tle

For live sub-satellite position, see the globe view (requires WebGL).

§ Visibility from observer

Set your observer location to see the next 7 days of passes ≥ 10°. The values pass through the URL so the page stays shareable.

No JS? Fill the form by hand. The geolocation button needs JavaScript.